C/2017 T3 ( ATLAS )

Japanese version
Home page
Updated on February 13, 2018

---------------------------------------------------------------------

* Profile

Discovery Date October 14, 2017
Magnitude 18.3 mag
Discoverer Asteroid Terrestrial-impact Last Alert System (ATLAS) search program

* Pictures

* Orbital Elements

Epoch 2018 July 21.0 TT = JDT 2458320.5
T 2018 July 19.14945 TT                                 MPCW
q   0.8253203            (2000.0)            P               Q
z  +0.0007654      Peri.  246.88835     +0.22855059     -0.60006980
 +/-0.0000096      Node   230.08721     +0.65976628     -0.48356483
e   0.9993683      Incl.   88.10721     -0.71587226     -0.63724508
From 370 observations 2017 Sept. 11-2018 Jan. 20, mean residual 0".5.

* Finding Charts

* Magnitudes Graph

        m1 = 9.0 + 5 log d + 10.0 log r

---------------------------------------------------------------------

The orbital elements are published on M.P.E.C. 2018-B155.
The charts are made with StellaNavigator Ver.10 (AstroArts).
The magnitudes graphs are made with Comet for Windows.

---------------------------------------------------------------------

Copyright(C) Seiichi Yoshida (comet@aerith.net). All rights reserved.